Simultaneous Nadir Overpasses (SNOs) Predictions

Prediction of SNOs between GOES-16 and LANDSAT-8 Satellite Orbit:

Table of predicted SNOs for the next 14.0 days since TLE Epoch: 4/2/2022
Index Date Time (GOES-16) GOES-16 Lat,Lon LANDSAT-8 Lat,Lon Distance(km) Time Diff (sec)
1 04/04/2022 02:57:08 -0.06, -75.21 0.68, -71.70 399.01 80
2 04/04/2022 15:18:23 0.06, -75.23 0.44, -76.85 185.48 80
3 04/06/2022 15:06:12 0.06, -75.24 -0.25, -73.91 151.56 80
4 04/07/2022 03:30:16 -0.06, -75.23 -0.85, -79.10 440.22 80
5 04/08/2022 14:56:39 0.05, -75.25 -0.84, -70.95 488.90 80
6 04/09/2022 03:18:03 -0.05, -75.24 -0.26, -76.14 102.74 80
7 04/11/2022 03:03:11 -0.05, -75.26 0.40, -73.19 235.42 80
8 04/11/2022 15:24:26 0.05, -75.28 0.71, -78.34 348.79 80
9 04/13/2022 15:12:14 0.04, -75.31 0.04, -75.40 10.10 80
10 04/15/2022 15:02:41 0.04, -75.34 -0.59, -72.44 330.22 80
